Leesburg, FL

11:03 AM EDT on April 29, 2017 (GMT -0400)
Leesburg Regional

Weather History for KLEE - November, 2011

Change the Weather History Date:

Saturday, November 26, 2011

  Actual Average Record
Temperature  
Mean Temperature 70 °F -  
Max Temperature 79 °F 75 °F 85 °F (1967)
Min Temperature 61 °F 52 °F 32 °F (1991)
Cooling Degree Days 5    
Growing Degree Days 20 (Base 50)    
Moisture  
Dew Point 57 °F    
Average Humidity 65    
Maximum Humidity 87    
Minimum Humidity 42    
Precipitation  
Precipitation 0.00 in - - ()
Sea Level Pressure  
Sea Level Pressure 30.20 in    
Wind  
Wind Speed 7 mph (East)    
Max Wind Speed 14 mph    
Max Gust Speed 18 mph    
Visibility 10 miles    
Events      
Averages and records for this station are not official NWS values.
T = Trace of Precipitation, MM = Missing Value Source: NWS Daily Summary

Daily Weather History Graph

Daily Weather History Graph

Search for Another Location

Airport or City:

Trip Planner

Search our weather history database for the weather conditions in past years. The results will help you decide how hot, cold, wet, or windy it might be!

Date:

Astronomy

Nov. 26, 2011 Rise Set
Actual Time 6:58 AM EST 5:29 PM EST
Civil Twilight 6:33 AM EST 5:55 PM EST
Nautical Twilight 6:04 AM EST 6:24 PM EST
Astronomical Twilight 5:35 AM EST 6:52 PM EST
Moon 8:23 AM EST (11/26) 7:03 PM EST (11/26)
Length of Visible Light 11h 22m
Length of Day
10h 31m
Waxing Crescent, 3% of the Moon is Illuminated
Nov 26
Waxing Crescent
Dec 2
First Quarter
Dec 10
Full
Dec 17
Last Quarter
Dec 24
New

Hourly Weather History & Observations

Time (EST) Temp. Dew Point Humidity Pressure Visibility Wind Dir Wind Speed Gust Speed Precip Events Conditions
1:53 AM 61.0 °F 57.0 °F 87% 30.21 in 10.0 mi East 3.5 mph - N/A   Scattered Clouds
2:53 AM 61.0 °F 57.0 °F 87% 30.20 in 10.0 mi East 4.6 mph - N/A   Scattered Clouds
3:53 AM 62.1 °F 57.0 °F 84% 30.19 in 10.0 mi ENE 5.8 mph - N/A   Clear
4:53 AM 61.0 °F 55.9 °F 83% 30.20 in 10.0 mi ENE 4.6 mph - N/A   Clear
5:53 AM 62.1 °F 57.0 °F 84% 30.20 in 10.0 mi East 3.5 mph - N/A   Clear
6:53 AM 63.0 °F 57.0 °F 81% 30.22 in 10.0 mi East 3.5 mph - N/A   Overcast
7:53 AM 66.9 °F 59.0 °F 76% 30.24 in 10.0 mi ENE 5.8 mph - N/A   Mostly Cloudy
8:53 AM 71.1 °F 57.9 °F 63% 30.25 in 10.0 mi East 8.1 mph - N/A   Overcast
9:53 AM 75.0 °F 55.9 °F 51% 30.25 in 10.0 mi East 11.5 mph 18.4 mph N/A   Clear
10:53 AM 75.9 °F 55.9 °F 50% 30.25 in 10.0 mi ESE 12.7 mph - N/A   Clear
11:53 AM 77.0 °F 54.0 °F 45% 30.23 in 10.0 mi ESE 13.8 mph - N/A   Scattered Clouds
12:53 PM 77.0 °F 55.9 °F 48% 30.20 in 10.0 mi East 10.4 mph - N/A   Mostly Cloudy
1:53 PM 78.1 °F 55.9 °F 46% 30.17 in 10.0 mi East 10.4 mph - N/A   Mostly Cloudy
2:53 PM 79.0 °F 54.0 °F 42% 30.16 in 10.0 mi ESE 10.4 mph - N/A   Mostly Cloudy
3:53 PM 77.0 °F 54.0 °F 45% 30.16 in 10.0 mi ESE 11.5 mph - N/A   Scattered Clouds
4:53 PM 75.0 °F 55.0 °F 50% 30.17 in 10.0 mi East 9.2 mph - N/A   Mostly Cloudy
5:53 PM 72.0 °F 55.9 °F 57% 30.17 in 10.0 mi East 8.1 mph - N/A   Scattered Clouds
7:53 PM 70.0 °F 57.0 °F 63% 30.18 in 10.0 mi East 9.2 mph - N/A   Partly Cloudy
8:53 PM 69.1 °F 57.9 °F 68% 30.17 in 10.0 mi East 8.1 mph - N/A   Clear
9:53 PM 68.0 °F 60.1 °F 76% 30.17 in 10.0 mi ESE 9.2 mph - N/A   Scattered Clouds
11:53 PM 66.9 °F 60.1 °F 79% 30.15 in 10.0 mi ESE 10.4 mph - N/A   Clear